Other Public Products
Issued by NWS Grand Forks, ND

Home | Current Version | Previous Version | Text Only | Print | Product List | Glossary Off
Versions: 1 2 3 4 5 6 7 8 9 10 11 12 13 14 15 16 17 18 19 20 21 22 23 24 25 26 27 28 29 30 31 32 33 34 35 36 37 38 39 40 41 42 43 44 45 46 47 48 49 50

000
FPUS83 KFGF 221731
OPUFGF
PRAIRIE TO PINES WEATHER ROUNDUP
NATIONAL WEATHER SERVICE EASTERN NORTH DAKOTA/GRAND FORKS ND
1200 PM CDT MON MAY 22 2017

 **SATELLITE DATA USED TO AUGMENT SKY COVER AT AUTOMATED STATIONS**
 *****  WEATHER ACROSS EASTERN NORTH DAKOTA  *****

CITY           SKY/WX    TMP DP  RH WIND       PRES   REMARKS
GRAND FORKS    CLOUDY    53  44  71 N17       29.85S
GRAND FORKS AF CLOUDY    54  43  66 N17G25    29.86S
GRAND CITY NWS NOT AVBL
BUXTON           N/A     53  45  73 NW17        N/A
DEVILS LAKE    LGT RAIN  50  42  74 NW10      29.92R
FARGO          FAIR      59  42  53 NW20      29.84S
WAHPETON ARPT  PTSUNNY   57  41  54 NW16      29.86S
$$

 *****  WEATHER ACROSS CENTRAL AND WESTERN NORTH DAKOTA  *****

CITY           SKY/WX    TMP DP  RH WIND       PRES   REMARKS
JAMESTOWN      FAIR      59  42  53 N16G25    29.89R
BISMARCK       PTSUNNY   62  38  40 NW16      29.97R
MINOT          PTSUNNY   57  37  47 N17       29.99R
MINOT AFB      LGT RAIN  56  40  53 N12G25    29.99R
GARRISON         N/A     58  34  40 N14G26    29.98S
WILLISTON      FAIR      65  38  36 N13G22    30.05S
DICKINSON      PTSUNNY   58  35  42 N15G24    29.99S
HETTINGER      PTSUNNY   55  42  61 N17G23    30.01R
$$

 *****  OTHER OBSERVATIONS NORTHEAST NORTH DAKOTA  *****

CITY           SKY/WX    TMP DP  RH WIND       PRES   REMARKS
WALHALLA       NOT AVBL
LANGDON        PTSUNNY   50  45  81 N20G29    29.89R
CAVALIER       PTSUNNY   52  43  71 N15G23    29.86S
GRAFTON        CLOUDY    50  45  81 N16G25    29.87S
CANDO          NOT AVBL
FORT TOTTEN      N/A     50  39  66 N5        29.95S
ROLLA          PTSUNNY   52  39  62 N21       29.93F
RUGBY          NOT AVBL
 ***** THE ABOVE OBSERVATIONS ARE NON NWS ARE NOT QUALITY
        CONTROLLED AND MAY MIS-REPORT RAIN FOR SNOW...
$$

 *****  OTHER OBSERVATIONS SOUTHEAST NORTH DAKOTA *****

CITY           SKY/WX    TMP DP  RH WIND       PRES   REMARKS
COOPERSTOWN    PTSUNNY   54  41  62 NW21      29.89S
VALLEY CITY    NOT AVBL
OAKES          NOT AVBL
GWINNER        MOSUNNY   59  45  58 MISG      29.88S
SHEYENNE NWR     N/A     59  43  55 N12       29.95
BUFFALO          N/A     56  37  48 W20         N/A
WYNDMERE         N/A     59  45  58 NW13        N/A
 ***** THE ABOVE OBSERVATIONS ARE NON NWS ARE NOT QUALITY
       CONTROLLED AND MAY MIS-REPORT RAIN FOR SNOW...
$$

  *****  WEATHER ACROSS NORTHERN MINNESOTA  *****

CITY           SKY/WX    TMP DP  RH WIND       PRES   REMARKS
FLAG ISLAND    DRIZZLE   46  43  87 NW12      29.76S
WARROAD        DRIZZLE   48  45  87 N10       29.79R
ROSEAU         LGT RAIN  50  43  76 N10       29.79S
HALLOCK        CLOUDY    50  45  81 N16G24    29.84R
THF RVR FALLS  CLOUDY    50  42  74 NW12      29.82S
HALSTAD          N/A     53  43  67 N22         N/A
FOSSTON        DRIZZLE   45  43  93 NW9       29.82S
BAUDETTE       LGT RAIN  46  43  89 N9        29.77R
WASKISH        CLOUDY    48  45  87 NW8       29.77S
CROOKSTON      CLOUDY    52  45  76 N16       29.84S
$$
  *****  WEATHER ACROSS CENTRAL AND WEST MINNESOTA  *****

CITY           SKY/WX    TMP DP  RH WIND       PRES   REMARKS
BEMIDJI        CLOUDY    49  42  78 W12       29.79R
PARK RAPIDS    CLOUDY    54  40  59 W15G22    29.80S
WADENA         PTSUNNY   54  43  66 NW13G23   29.82S
DETROIT LAKES  LGT RAIN  52  43  71 NW14      29.84R
MOORHEAD       FAIR      57  43  58 NW21      29.85S
FERGUS FALLS   PTSUNNY   55  45  67 NW17G23   29.84R
ELBOW LAKE     PTSUNNY   55  43  65 NW12      29.86S
MORRIS MN      FAIR      57  45  62 NW9       29.87S
STAPLES        PTSUNNY   55  41  58 W12G22    29.82S
WHEATON        FAIR      57  39  51 W9G16     29.89S
$$
  *****  WEATHER ELSEWHERE ACROSS MINNESOTA  *****

CITY           SKY/WX    TMP DP  RH WIND       PRES   REMARKS
DULUTH         CLOUDY    49  45  86 W14       29.76S
INTRNTL FALLS  LGT RAIN  47  44  90 N9        29.74R FOG
ELY            LGT RAIN  46  43  87 W10       29.73R
CLOQUET        DRIZZLE   48  45  87 W7        29.78R
BRAINERD       PTSUNNY   53  43  68 NW9       29.81F
HIBBING        CLOUDY    49  43  80 W8        29.75S
ALEXANDRIA     FAIR      54  40  59 NW14      29.86S
SAINT CLOUD    PTSUNNY   57  44  62 NW10      29.84S
MINNEAPOLIS    FAIR      61  42  49 W15G22    29.84F
$$

  *****  WEATHER ACROSS SOUTH DAKOTA  *****

CITY           SKY/WX    TMP DP  RH WIND       PRES   REMARKS
SIOUX FALLS    PTSUNNY   62  52  69 W10       29.88S
BROOKINGS      FAIR      60  48  64 W13       29.88R
WATERTOWN      FAIR      61  43  51 N7        29.87S
HURON          LGT RAIN  51  50  96 NW13      29.89F
SISSETON         N/A     57  42  57 N9        29.87F
ABERDEEN       CLOUDY    57  37  47 N13       29.91R
MITCHELL       CLOUDY    57  48  72 NW13G20   29.91F
PIERRE         CLOUDY    57  47  69 NW17      29.92S
MOBRIDGE       CLOUDY    54  42  64 N10       29.92R
RAPID CITY     FAIR      60  41  49 N22G30    30.00F
$$

  *****  SOME WEATHER IN NEARBY STATES *****

CITY           SKY/WX    TMP DP  RH WIND       PRES   REMARKS
GLASGOW MT     PTSUNNY   62  40  44 N16G24    30.13R
GREAT FALLS MT CLOUDY    63  35  35 SE3       30.24S
CHEYENNE WY    FAIR      56  31  38 NW20G33   30.15F
SCOTTSBLUFF NE CLOUDY    57  42  57 NW13      30.09F
OMAHA NE       FAIR      70  49  47 SW9       29.92F
DES MOINES IA  PTSUNNY   67  53  61 SW14      29.90F
DAVENPORT IA   PTSUNNY   68  49  50 S18G25    29.95F
CHICAGO IL     FAIR      65  44  46 SW16G26   29.99S
EAU CLAIRE WI  PTSUNNY   61  43  51 W17       29.83S
LA CROSSE WI   FAIR      66  48  52 S12       29.86F
$$

  *****  SOME NATIONAL WEATHER *****

CITY           SKY/WX    TMP DP  RH WIND       PRES   REMARKS
LA GUARDIA NY  LGT RAIN  60  55  83 E7        30.07F
RALEIGH NC     PTSUNNY   73  66  78 NW6       30.03F
ATLANTA GA     PTSUNNY   78  68  71 E8        30.04F
NEW ORLEANS LA CLOUDY    77  68  73 CALM      30.04S
OKLAHOMA CITY  PTSUNNY   66  51  58 S10       30.07F
ALBUQUERQUE NM FAIR      70  29  21 N7        30.15F
SALT LAKE CITY FAIR      67  46  47 N5        30.26F
LOS ANGELES CA PTSUNNY   63  58  83 SW6       29.99S HAZE
BOISE ID       FAIR      69  48  47 W6        30.21S
SEATTLE WA     PTSUNNY   70  51  51 N10       30.16F
$$

*** WEATHER ACROSS MANITOBA...SASKATCHEWAN AND ONTARIO ***
                ***ONTARIO***

CITY           SKY/WX    TMP DP  RH WIND       PRES   REMARKS
GERALDTON      CLOUDY    46  43  87 VRB2      29.66S
THUNDER BAY    CLOUDY    55  45  67 W9        29.68S
SIOUX LOOKOUT  DRIZZLE   46  45  93 N7        29.69R
TORONTO        PTSUNNY   57  46  67 W15G22    29.93R
BIG TROUT LK   CLOUDY    55  34  44 E5        29.95R
PICKLE LAKE    LGT RAIN  45  43  93 NE13G25   29.73R FOG
DRYDEN         LGT RAIN  46  45  93 N6        29.71R
KENORA         LGT RAIN  45  41  87 N10       29.75S
$$
                *** MANITOBA***

CITY           SKY/WX    TMP DP  RH WIND       PRES   REMARKS
BRANDON        PTSUNNY   59  36  41 N14G22    29.93S
DAUPHIN        CLOUDY    63  37  39 NE20G25   29.98R
ISLAND LAKE    NOT AVBL
PILOT MOUND      N/A     50  37  62 N15         N/A
THE PAS        MOSUNNY   61  36  39 N8        30.11R
THOMPSON       MOSUNNY   57  37  47 NE12      30.14S
WINNIPEG       LGT RAIN  48  45  87 N13G18    29.86R
LYNN LAKE      SUNNY     64  37  36 SE10      30.18F
CHURCHILL      CLOUDY    32  32 100 NE6       30.30F FOG
GILLAM         MOSUNNY   46  34  61 NE8       30.18S
$$
                ***SASKATCHEWAN***

CITY           SKY/WX    TMP DP  RH WIND       PRES   REMARKS
ESTEVAN        MOSUNNY   64  36  34 N15G23    30.02F
KINDERSLEY     MOSUNNY   63  37  39 NE9       30.20R
LLOYDMINSTER   PTSUNNY   63  41  45 VRB5      30.21R
PRINCE ALBERT  MOSUNNY   68  36  30 VRB9      30.15S
REGINA         MOSUNNY   63  36  36 NE18G26   30.09S
YORKTON        PTSUNNY   64  34  32 N20G30    30.03F



USA.gov is the U.S. government's official web portal to all federal, state and local government web resources and services.